When you browse on this site, cookies collect data to enhance your experience and personalize the content and advertising you see.
Visit our Privacy Policy to learn more. By continuing to use the site, you agree to this use of cookies and data.

Hourly Weather Newcastle upon Tyne

Today, 8 July, Wednesday

Time Temperature Precipitation Wind Pressure Humidity
00:00 +11°C° 0 mm 1 mps 755 mmHg 89%
01:00 +11°C° 0 mm 1 mps 755 mmHg 89%
02:00 +10°C° 0 mm 1 mps 755 mmHg 89%
03:00 +9°C° 0 mm 2 mps 754 mmHg 90%
04:00 +10°C° 0 mm 2 mps 755 mmHg 89%
05:00 +12°C° 0 mm 2 mps 755 mmHg 89%
06:00 +12°C° 0 mm 2 mps 755 mmHg 88%
07:00 +13°C° 0 mm 2 mps 755 mmHg 84%
08:00 +13°C° 0 mm 3 mps 755 mmHg 79%
09:00 +14°C° 0 mm 4 mps 756 mmHg 75%
10:00 +14°C° 0.1 mm 4 mps 756 mmHg 73%
11:00 +15°C° 0.1 mm 4 mps 756 mmHg 72%
12:00 +15°C° 0.1 mm 4 mps 756 mmHg 71%
13:00 +15°C° 0 mm 5 mps 756 mmHg 71%
14:00 +15°C° 0 mm 5 mps 756 mmHg 71%
15:00 +15°C° 0 mm 5 mps 756 mmHg 71%
16:00 +14°C° 0 mm 5 mps 755 mmHg 73%
17:00 +14°C° 0 mm 5 mps 755 mmHg 75%
18:00 +13°C° 0 mm 5 mps 755 mmHg 78%
19:00 +13°C° 0.1 mm 5 mps 755 mmHg 81%
20:00 +12°C° 0.1 mm 4 mps 755 mmHg 83%
21:00 +12°C° 0.1 mm 4 mps 755 mmHg 86%
22:00 +11°C° 0.6 mm 4 mps 754 mmHg 88%
23:00 +11°C° 0.6 mm 4 mps 754 mmHg 90%

Tomorrow, 9 July, Thursday

Time Temperature Precipitation Wind Pressure Humidity
00:00 +10°C° 0.6 mm 4 mps 754 mmHg 92%
01:00 +10°C° 0.3 mm 4 mps 754 mmHg 93%
02:00 +10°C° 0.3 mm 3 mps 753 mmHg 93%
03:00 +10°C° 0.3 mm 3 mps 753 mmHg 93%
04:00 +10°C° 0.1 mm 3 mps 753 mmHg 92%
05:00 +11°C° 0.1 mm 3 mps 753 mmHg 91%
06:00 +11°C° 0.1 mm 3 mps 753 mmHg 91%
07:00 +11°C° 0 mm 3 mps 753 mmHg 86%
08:00 +12°C° 0 mm 3 mps 753 mmHg 82%
09:00 +13°C° 0 mm 3 mps 754 mmHg 78%
10:00 +14°C° 0 mm 3 mps 754 mmHg 74%
11:00 +14°C° 0 mm 3 mps 754 mmHg 71%
12:00 +16°C° 0 mm 3 mps 754 mmHg 68%
13:00 +16°C° 0 mm 3 mps 754 mmHg 67%
14:00 +16°C° 0 mm 3 mps 754 mmHg 67%
15:00 +16°C° 0 mm 3 mps 754 mmHg 66%
16:00 +16°C° 0 mm 3 mps 754 mmHg 68%
17:00 +14°C° 0 mm 3 mps 754 mmHg 70%
18:00 +14°C° 0 mm 3 mps 753 mmHg 72%
19:00 +13°C° 0 mm 3 mps 754 mmHg 76%
20:00 +13°C° 0 mm 2 mps 754 mmHg 81%
21:00 +12°C° 0 mm 2 mps 754 mmHg 86%
22:00 +10°C° 0.2 mm 2 mps 754 mmHg 87%
23:00 +10°C° 0.2 mm 2 mps 754 mmHg 88%

Day after tomorrow, 10 July, Friday

Time Temperature Precipitation Wind Pressure Humidity
00:00 +10°C° 0.2 mm 2 mps 754 mmHg 89%
01:00 +10°C° 0.7 mm 2 mps 754 mmHg 90%
02:00 +10°C° 0.7 mm 2 mps 753 mmHg 90%
03:00 +10°C° 0.7 mm 2 mps 753 mmHg 91%
04:00 +10°C° 0.1 mm 3 mps 753 mmHg 90%
05:00 +10°C° 0.1 mm 3 mps 753 mmHg 89%
06:00 +10°C° 0.1 mm 4 mps 753 mmHg 88%
07:00 +9°C° 0.2 mm 5 mps 754 mmHg 88%
08:00 +10°C° 0.2 mm 6 mps 754 mmHg 87%
09:00 +10°C° 0.2 mm 7 mps 754 mmHg 86%
10:00 +11°C° 0.3 mm 6 mps 755 mmHg 82%
11:00 +13°C° 0.3 mm 6 mps 755 mmHg 77%
12:00 +14°C° 0.3 mm 6 mps 755 mmHg 73%
13:00 +14°C° 0.2 mm 5 mps 756 mmHg 70%
14:00 +15°C° 0.2 mm 4 mps 756 mmHg 67%
15:00 +16°C° 0.2 mm 3 mps 756 mmHg 65%
16:00 +16°C° 0.2 mm 3 mps 757 mmHg 66%
17:00 +16°C° 0.2 mm 2 mps 757 mmHg 68%
18:00 +15°C° 0.2 mm 1 mps 757 mmHg 69%
19:00 +14°C° 0.1 mm 2 mps 758 mmHg 73%
20:00 +13°C° 0.1 mm 2 mps 758 mmHg 78%
21:00 +12°C° 0.1 mm 2 mps 759 mmHg 82%
22:00 +11°C° 0 mm 3 mps 759 mmHg 84%
23:00 +10°C° 0 mm 3 mps 759 mmHg 85%

11 July, Saturday

Time Temperature Precipitation Wind Pressure Humidity
00:00 +8°C° 0 mm 4 mps 759 mmHg 87%
01:00 +8°C° 0 mm 4 mps 759 mmHg 87%
02:00 +7°C° 0 mm 4 mps 759 mmHg 88%
03:00 +7°C° 0 mm 5 mps 759 mmHg 88%
04:00 +8°C° 0 mm 4 mps 760 mmHg 87%
05:00 +8°C° 0 mm 4 mps 760 mmHg 86%
06:00 +10°C° 0 mm 4 mps 760 mmHg 85%
07:00 +11°C° 0 mm 4 mps 761 mmHg 81%
08:00 +12°C° 0 mm 4 mps 761 mmHg 76%
09:00 +14°C° 0 mm 4 mps 762 mmHg 72%
10:00 +15°C° 0 mm 4 mps 762 mmHg 68%
11:00 +16°C° 0 mm 3 mps 762 mmHg 64%
12:00 +17°C° 0 mm 3 mps 762 mmHg 60%
13:00 +17°C° 0.1 mm 3 mps 762 mmHg 63%
14:00 +17°C° 0.1 mm 3 mps 762 mmHg 65%
15:00 +17°C° 0.1 mm 3 mps 762 mmHg 67%
16:00 +17°C° 0.1 mm 3 mps 762 mmHg 70%
17:00 +17°C° 0.1 mm 4 mps 762 mmHg 73%
18:00 +15°C° 0.1 mm 4 mps 762 mmHg 76%
19:00 +14°C° 0 mm 4 mps 763 mmHg 79%
20:00 +13°C° 0 mm 4 mps 763 mmHg 83%
21:00 +12°C° 0 mm 4 mps 763 mmHg 86%
22:00 +11°C° 0 mm 4 mps 763 mmHg 87%
23:00 +11°C° 0 mm 4 mps 763 mmHg 88%

12 July, Sunday

Time Temperature Precipitation Wind Pressure Humidity
00:00 +10°C° 0 mm 3 mps 763 mmHg 88%
01:00 +10°C° 0 mm 3 mps 763 mmHg 89%
02:00 +9°C° 0 mm 3 mps 763 mmHg 89%
03:00 +9°C° 0 mm 3 mps 763 mmHg 90%
04:00 +10°C° 0 mm 3 mps 763 mmHg 88%
05:00 +10°C° 0 mm 3 mps 763 mmHg 86%
06:00 +11°C° 0 mm 3 mps 763 mmHg 84%
07:00 +12°C° 0 mm 3 mps 763 mmHg 79%
08:00 +14°C° 0 mm 3 mps 763 mmHg 75%
09:00 +16°C° 0 mm 3 mps 763 mmHg 71%
10:00 +17°C° 0 mm 3 mps 763 mmHg 69%
11:00 +18°C° 0 mm 3 mps 763 mmHg 67%
12:00 +18°C° 0 mm 3 mps 763 mmHg 65%
13:00 +18°C° 0 mm 3 mps 762 mmHg 65%
14:00 +19°C° 0 mm 4 mps 762 mmHg 66%
15:00 +19°C° 0 mm 4 mps 762 mmHg 66%
16:00 +18°C° 0 mm 4 mps 762 mmHg 68%
17:00 +18°C° 0 mm 4 mps 762 mmHg 71%
18:00 +17°C° 0 mm 3 mps 761 mmHg 73%
19:00 +16°C° 0 mm 3 mps 761 mmHg 72%
20:00 +16°C° 0 mm 3 mps 761 mmHg 72%
21:00 +15°C° 0 mm 2 mps 761 mmHg 72%
22:00 +14°C° 0 mm 2 mps 761 mmHg 72%
23:00 +13°C° 0 mm 3 mps 760 mmHg 72%

13 July, Monday

Time Temperature Precipitation Wind Pressure Humidity
00:00 +13°C° 0 mm 3 mps 760 mmHg 72%
01:00 +14°C° 0 mm 2 mps 760 mmHg 73%
02:00 +14°C° 0 mm 2 mps 759 mmHg 75%
03:00 +14°C° 0 mm 2 mps 759 mmHg 76%
04:00 +14°C° 0.1 mm 2 mps 758 mmHg 79%
05:00 +14°C° 0.1 mm 2 mps 758 mmHg 82%
06:00 +14°C° 0.1 mm 2 mps 758 mmHg 85%
07:00 +14°C° 0.2 mm 2 mps 758 mmHg 85%
08:00 +13°C° 0.2 mm 3 mps 758 mmHg 85%
09:00 +14°C° 0.2 mm 3 mps 757 mmHg 85%
10:00 +14°C° 0 mm 3 mps 757 mmHg 84%
11:00 +14°C° 0 mm 3 mps 757 mmHg 83%
12:00 +15°C° 0 mm 4 mps 757 mmHg 81%
13:00 +15°C° 0 mm 4 mps 756 mmHg 79%
14:00 +15°C° 0 mm 4 mps 756 mmHg 77%
15:00 +17°C° 0 mm 4 mps 755 mmHg 76%
16:00 +15°C° 0.1 mm 4 mps 755 mmHg 79%
17:00 +14°C° 0.1 mm 4 mps 755 mmHg 83%
18:00 +14°C° 0.1 mm 4 mps 755 mmHg 87%
19:00 +13°C° 0.2 mm 3 mps 755 mmHg 88%
20:00 +13°C° 0.2 mm 3 mps 755 mmHg 90%
21:00 +13°C° 0.2 mm 3 mps 755 mmHg 91%
22:00 +12°C° 0.1 mm 3 mps 754 mmHg 92%
23:00 +12°C° 0.1 mm 3 mps 754 mmHg 92%
Show more